Regional Weather Roundup
Issued by NWS

Home | Current Version | Previous Version | Graphics & Text | Print | Product List | Glossary On
Versions: 1 2 3 4 5 6 7 8 9 10 11 12 13 14 15 16 17 18 19 20 21 22 23 24 25 26 27 28 29 30 31 32 33 34 35 36 37 38 39 40 41 42 43 44 45 46 47 48 49 50
000
ASUS43 KMKX 271917
RWRWI

WISCONSIN REGIONAL WEATHER ROUNDUP
NATIONAL WEATHER SERVICE MILWAUKEE/SULLIVAN WI
200 PM CDT WED MAY 27 2015

NOTE: "FAIR" INDICATES FEW OR NO CLOUDS BELOW 12,000 FEET WITH NO
SIGNIFICANT WEATHER AND/OR OBSTRUCTIONS TO VISIBILITY.

WIZ001-002-006>008-014>016-023>028-272000-
NORTHWEST WISCONSIN

CITY           SKY/WX    TMP DP  RH WIND       PRES   REMARKS
SUPERIOR ARPT  MOSUNNY   81  58  45 W8G17     29.86S HX  81
ASHLAND        MOSUNNY   81  56  42 SW10      29.87S HX  81
HAYWARD        SUNNY     77  55  46 VRB7      29.92R
SIREN          SUNNY     77  57  49 SW14      29.93S
CUMBERLAND     SUNNY     73  59  60 SW12      29.95R
RICE LAKE      SUNNY     76  57  51 SW8       29.96R
CHETEK         SUNNY     75  59  58 S12       29.94S
LADYSMITH      SUNNY     74  58  57 SW10      29.95S
EAU CLAIRE     NOT AVBL
MENOMONIE      SUNNY     76  59  56 S14       29.96R
NEW RICHMOND   SUNNY     76  57  52 SW10      29.95S
OSCEOLA        SUNNY     77  59  53 W10       29.97R
$$

WIZ003>005-009-010-017-018-272000-
NORTH CENTRAL WISCONSIN

CITY           SKY/WX    TMP DP  RH WIND       PRES   REMARKS
MANITOWISH WTR MOSUNNY   72  58  62 W13G18    29.91R
ARBOR VITAE    MOSUNNY   72  59  62 W10G20    29.92R
WOODRUFF       MOSUNNY   72  59  62 W10G20    29.92R
RHINELANDER    MOSUNNY   72  58  61 W12G22    29.93R
EAGLE RIVER    MOSUNNY   73  55  52 SW13G22   29.90S
LAND O LAKES   MOSUNNY   76  55  48 SW8       29.90R
PHILLIPS       SUNNY     72  58  62 SW8       29.93R
TOMAHAWK       MOSUNNY   70  58  63 SW7       29.94S
MEDFORD        MOSUNNY   69  59  70 W12       29.96R
MERRILL        MOSUNNY   71  60  69 W12G21    29.95S
$$

WIZ029-030-035-036-043>047-272000-
CENTRAL WISCONSIN

CITY           SKY/WX    TMP DP  RH WIND       PRES   REMARKS
WAUSAU         FAIR      71  59  65 W13       29.95R
MOSINEE        PTSUNNY   70  63  78 W10G18    29.98
MARSHFIELD     MOSUNNY   73  57  57 W14       29.97S
STEVENS POINT  PTSUNNY   67  58  72 SW13G22   29.97S
WAUPACA        PTSUNNY   70  59  67 SW9G17    29.96S
WAUTOMA        NOT AVBL
WISC RAPIDS    PTSUNNY   76  56  49 W12G17    29.98S
CAMP DOUGLAS   NOT AVBL
$$

WIZ011>013-019>022-031-037>040-048>050-272000-
NORTHEAST WISCONSIN

CITY           SKY/WX    TMP DP  RH WIND       PRES   REMARKS
ANTIGO         PTSUNNY   67  61  80 W15       29.95R
SHAWANO        MOSUNNY   71  60  68 W9        29.93S
OCONTO         PTSUNNY   68  60  75 SW10      29.91R
STURGEON BAY   PTSUNNY   64  55  72 SW10      29.95R
GREEN BAY      PTSUNNY   70  60  70 W13       29.94R
MANITOWOC      NOT AVBL
APPLETON       PTSUNNY   68  55  64 SW8       29.97R
CLINTONVILLE   PTSUNNY   70  57  64 W12       29.94S
OSHKOSH        PTSUNNY   68  55  63 VRB6      29.97S
$$

WIZ032>034-041-042-053>061-272000-
SOUTHWEST WISCONSIN

CITY           SKY/WX    TMP DP  RH WIND       PRES   REMARKS
LA CROSSE      MOSUNNY   79  59  50 S9        29.98S HX  80
SPARTA         MOSUNNY   74  54  48 W10       29.99F
VIROQUA        PTSUNNY   73  58  59 W9        30.02S
BOSCOBEL       CLOUDY    75  57  53 VRB7      30.02S
PRAIRIE DU CHI PTSUNNY   73  56  55 S5        30.01F
PLATTEVILLE    MOSUNNY   73  57  57 W7        30.03S
$$

WIZ056-057-062-063-064-067-068-272000-
SOUTH CENTRAL WISCONSIN

CITY           SKY/WX    TMP DP  RH WIND       PRES   REMARKS
REEDSBURG      MOSUNNY   72  55  56 SW6       30.00R
BARABOO/DELLS  SUNNY     70  51  50 CALM      30.00S
LONE ROCK      NOT AVBL
MINERAL POINT  SUNNY     73  55  53 NW7       30.04S
MADISON        MOSUNNY   71  52  50 N7        30.01R
MIDDLETON      PTSUNNY   72  53  50 NW3       30.02R
WATERTOWN      PTSUNNY  N/A N/A N/A N7G17     30.00R
MONROE         MOSUNNY   72  54  53 NW8G20    30.02R
JANESVILLE     PTSUNNY   72  57  60 NW20G25   30.00R
$$

WIZ051-052-058>065-066-070>072-272000-
SOUTHEAST WISCONSIN

CITY           SKY/WX    TMP DP  RH WIND       PRES   REMARKS
MILWAUKEE      PTSUNNY   68  55  63 NW13      29.97R
WAUKESHA       MOSUNNY   66  55  68 NW12G18   29.99S
MILWAUKEE/TIMM PTSUNNY   70  54  56 N18       29.97S
RACINE         CLOUDY    69  58  67 W9G16     29.99R
BURLINGTON     PTSUNNY   66  59  77 NW13      29.98F
KENOSHA        CLOUDY    67  61  81 W9        29.98S
FOND DU LAC    PTSUNNY   67  55  65 VRB6      29.98S
SHEBOYGAN      CLOUDY    67  55  65 NW8       29.96S
WEST BEND      CLOUDY    68  54  60 NW14G20   29.98R
JUNEAU         PTSUNNY   64  56  73 W6        30.02R
$$

LSZ147-162-272000-
LAKE SUPERIOR

STATION/POSITION TIME  TEMP    WIND        PRES    WAVE
                       AIR SEA DIR/SP/G            HT/PER
                 (UTC) (F)     (DEG/KT/KT) (MB)    (FT/S)
W MID LAKE BUOY  1750   43 37  230/ 12/ 14   N/A     1/ 3
DEVILS ISLAND    1800   60     230/ 12/ 16   N/A
PORT WING        1840   75     250/  9/ 14   N/A
$$

LMZ867-665-643>646-272000-
LAKE MICHIGAN

STATION/POSITION TIME  TEMP    WIND        PRES    WAVE
                       AIR SEA DIR/SP/G            HT/PER
                 (UTC) (F)     (DEG/KT/KT) (MB)    (FT/S)
CHAMBERS ISLAND  1800   63     170/  6/ 10   N/A
N MID LAKE BUOY  1750   43 36  230/ 10/ 10   N/A     2/ 6
NORTHPORT PIER   1800   65     260/  3/  7   N/A
SISTER BAY       1848   65     250/ 10/ 12   N/A
ALGOMA LAKESHORE 1808          250/  8/ 10   N/A
KEWAUNEE LAKESHO 1800   63     260/  7/ 10   N/A
SHEBOYGAN LAKESH 1800   61     350/ 14/ 16   N/A
PORT WASHINGTON  1840   69      10/  7/ 15   N/A
ATWATER BUOY     1800   59 47  310/ 16/ 19   N/A
MILWAUKEE LAKESH 1800   67     290/ 12/ 17   N/A
S MID LAKE BUOY  1750   47 38  220/  4/  6   N/A     1/ 4
$$

TC  - TEMPERATURE IN CELSIUS
VSB - VISIBILITY IN STATUTE MILES
WCI - WIND CHILL INDEX
HX  - HEAT INDEX




USA.gov is the U.S. government's official web portal to all federal, state and local government web resources and services.